81P/Wild 2 (2022)

Japanese version
Home page
Updated on March 4, 2023

---------------------------------------------------------------------

* Profile

* Pictures

* Orbital Elements

Epoch 2022 Aug. 9.0 TT = JDT 2459800.5
T 2022 Dec. 15.63642 TT                                 Rudenko
q   1.5984036            (2000.0)            P               Q
n   0.15355952     Peri.   41.63842     -0.99848532     -0.03865736
a   3.4537023      Node   136.09873     +0.02200474     -0.93276259
e   0.5371913      Incl.    3.23657     +0.05042680     -0.35841256
P   6.42
>From 1850 observations 2014 Oct. 18-2022 Nov. 4, mean residual 0".6.
     Nongravitational parameters A1 = -0.04, A2 = -0.1009.

* Finding Charts

* Magnitudes Graph

        m1 = 6.3 + 5 log d + 18.0 log r(t + 20)  [  ,95]  (             - 2023 Mar. 20)
        m1 = 8.2 + 5 log d + 12.5 log r          [95,  ]  (2023 Mar. 20 -             )

---------------------------------------------------------------------

The orbital elements are published on M.P.E.C. 2022-V95.
The charts are made with StellaNavigator Ver.10 (AstroArts).
The magnitudes graphs are made with Comet for Windows.

---------------------------------------------------------------------

Copyright(C) Seiichi Yoshida (comet@aerith.net). All rights reserved.